Weather History for Muncie, IN

Change the Weather History Date:

Friday, August 30, 2013

  Actual Average Record
Temperature  
Mean Temperature 77 °F 71 °F  
Max Temperature 91 °F 82 °F 94 °F (1983)
Min Temperature 63 °F 60 °F 44 °F (1986)
Degree Days  
Heating Degree Days 0 1  
Month to date heating degree days 19 1  
Since 1 June heating degree days 40 28  
Since 1 July heating degree days 26 4  
Cooling Degree Days 12 7  
Month to date cooling degree days 197 234  
Year to date cooling degree days 801 827  
Since 1 June cooling degree days 633 744  
Growing Degree Days 27 (Base 50)    
Moisture  
Dew Point 65 °F    
Average Humidity 69    
Maximum Humidity 93    
Minimum Humidity 44    
Precipitation  
Precipitation 0.07 in 0.11 in 2.24 in (2005)
Month to date precipitation 1.41 3.19  
Year to date precipitation 24.02 27.80  
Sea Level Pressure  
Sea Level Pressure 29.92 in    
Wind  
Wind Speed 5 mph (WSW)    
Max Wind Speed 13 mph    
Max Gust Speed 17 mph    
Visibility 8 miles    
Events Rain , Thunderstorm    
T = Trace of Precipitation, MM = Missing Value Source: NWS Daily Summary

Daily Weather History Graph

Daily Weather History Graph

Search for Another Location

Airport:

Trip Planner

Search our weather history database for the weather conditions in past years. The results will help you decide how hot, cold, wet, or windy it might be!

Date:

Astronomy

Aug. 30, 2013 Rise Set
Actual Time 7:07 AM EDT 8:16 PM EDT
Civil Twilight 6:39 AM EDT 8:43 PM EDT
Nautical Twilight 6:05 AM EDT 9:17 PM EDT
Astronomical Twilight 5:30 AM EDT 9:52 PM EDT
Moon 1:45 AM EDT (8/30) 4:31 PM EDT (8/30)
Length of Visible Light 14h 04m
Length of Day
13h 08m
Waning Crescent, 29% of the Moon is Illuminated
Aug 30
Waning Crescent
Sep 5
New
Sep 12
First Quarter
Sep 19
Full
Sep 26
Last Quarter

Hourly Weather History & Observations

Time (EDT) Temp. Heat Index Dew Point Humidity Pressure Visibility Wind Dir Wind Speed Gust Speed Precip Events Conditions
12:53 AM 66.0 °F - 63.0 °F 90% 29.99 in 8.0 mi Calm Calm - N/A   Clear
1:53 AM 66.0 °F - 64.9 °F 96% 29.99 in 7.0 mi Calm Calm - N/A   Clear
2:53 AM 64.9 °F - 63.0 °F 93% 29.99 in 6.0 mi Calm Calm - N/A   Clear
3:53 AM 64.0 °F - 62.1 °F 93% 29.98 in 8.0 mi Calm Calm - N/A   Clear
4:53 AM 64.0 °F - 62.1 °F 93% 29.98 in 7.0 mi Calm Calm - N/A   Clear
4:59 AM 64.4 °F - 62.6 °F 94% 30.01 in 1.8 mi Calm Calm - N/A   Clear
5:08 AM 64.4 °F - 62.6 °F 94% 30.01 in 0.8 mi Calm Calm - N/A   Scattered Clouds
5:13 AM 64.4 °F - 62.6 °F 94% 30.01 in 3.0 mi Calm Calm - N/A   Mostly Cloudy
5:53 AM 64.9 °F - 63.0 °F 93% 29.98 in 7.0 mi Calm Calm - N/A   Overcast
6:53 AM 64.9 °F - 63.0 °F 93% 29.98 in 9.0 mi Calm Calm - N/A   Scattered Clouds
7:53 AM 70.0 °F - 66.0 °F 87% 29.98 in 7.0 mi SSW 4.6 mph - N/A   Clear
8:53 AM 73.9 °F - 66.9 °F 79% 29.98 in 10.0 mi SW 4.6 mph - N/A   Clear
9:53 AM 77.0 °F - 66.9 °F 71% 29.97 in 10.0 mi SW 5.8 mph - N/A   Clear
10:53 AM 80.1 °F 82.3 °F 66.9 °F 64% 29.96 in 10.0 mi SSW 6.9 mph - N/A   Clear
11:53 AM 82.0 °F 84.5 °F 66.9 °F 60% 29.95 in 10.0 mi SW 6.9 mph - N/A   Partly Cloudy
12:53 PM 84.9 °F 87.6 °F 66.9 °F 55% 29.93 in 10.0 mi Variable 4.6 mph - N/A   Scattered Clouds
1:53 PM 86.0 °F 88.2 °F 66.0 °F 51% 29.91 in 10.0 mi WNW 6.9 mph - N/A   Scattered Clouds
2:53 PM 88.0 °F 89.6 °F 64.9 °F 46% 29.90 in 10.0 mi West 10.4 mph - N/A   Partly Cloudy
3:53 PM 89.1 °F 90.3 °F 64.0 °F 43% 29.88 in 10.0 mi Variable 6.9 mph - N/A   Clear
4:53 PM 90.0 °F 91.3 °F 64.0 °F 42% 29.86 in 10.0 mi WNW 6.9 mph - N/A   Clear
5:53 PM 89.1 °F 91.0 °F 64.9 °F 45% 29.84 in 10.0 mi SSW 8.1 mph - N/A   Clear
6:53 PM 88.0 °F 90.3 °F 66.0 °F 48% 29.82 in 10.0 mi West 8.1 mph - N/A   Clear
7:53 PM 84.0 °F 86.5 °F 66.9 °F 56% 29.82 in 10.0 mi Calm Calm - N/A   Clear
8:53 PM 82.9 °F 85.4 °F 66.9 °F 58% 29.82 in 10.0 mi Calm Calm - N/A   Clear
9:53 PM 82.0 °F 84.5 °F 66.9 °F 60% 29.83 in 10.0 mi Calm Calm - N/A   Clear
10:53 PM 82.0 °F 84.9 °F 68.0 °F 62% 29.81 in 10.0 mi SSW 4.6 mph - N/A Thunderstorm Scattered Clouds
11:02 PM 82.4 °F 85.4 °F 68.0 °F 62% 29.84 in 10.0 mi SW 4.6 mph - N/A   Mostly Cloudy
11:28 PM 82.4 °F 85.4 °F 68.0 °F 62% 29.83 in 10.0 mi SW 9.2 mph - N/A Thunderstorm Mostly Cloudy
11:53 PM 78.1 °F - 70.0 °F 76% 29.81 in 10.0 mi WNW 10.4 mph - 0.01 in Rain , Thunderstorm Light Thunderstorms and Rain